Tracking 32938 objects as of 14-Jan-2026
HD Live streaming from Space Station
objects crossing your sky now

STARLINK-31067

Track STARLINK-31067 now!
10-day predictions
STARLINK-31067 is classified as:


NORAD ID: 58608
Int'l Code: 2023-200V
Perigee: 564.9 km
Apogee: 567.5 km
Inclination: 43.0 °
Period: 95.8 minutes
Semi major axis: 6937 km
RCS: Unknown
Launch date: December 19, 2023
Source: United States (US)
Launch site: AIR FORCE EASTERN TEST RANGE (AFETR)
Your satellite tracking list
Your tracking list is empty




NASA's NSSDC Master Catalog

Two Line Element Set (TLE):
1 58608U 23200V   26013.62369098  .00000298  00000-0  37145-4 0  9992
2 58608  43.0025 109.2335 0001870 281.9450  78.1182 15.02534523115319
Source of the keplerian elements: AFSPC